WetterOnline ( https://www.wetteronline.de )

Wetter aktuell Rüdenau

Aktuelles Wetter: Michelstadt-Vielbrunn (455m)

6-stündlich | Neueste Meldungen
Ortszeit Temperatur Wetter
So, 25.07. 20:00 22.2° C leicht bewölkt
So, 25.07. 14:00 22.4° C wolkig
So, 25.07. 8:00 17.2° C leicht bewölkt
So, 25.07. 2:00 17.3° C fast wolkenlos
Sa, 24.07. 20:00 22.4° C bewölkt
Sa, 24.07. 14:00 23.7° C fast wolkenlos
Sa, 24.07. 8:00 16.1° C wolkig
Sa, 24.07. 2:00 18.2° C fast wolkenlos
Ortszeit Temperatur Wetter
Mo, 26.07. 1:00 17.2° C leicht bewölkt
Mo, 26.07. 0:50 17.2° C leicht bewölkt
Mo, 26.07. 0:40 16.8° C leicht bewölkt
Mo, 26.07. 0:30 18.1° C wolkig
Mo, 26.07. 0:20 18.1° C wolkig
Mo, 26.07. 0:10 18.8° C wolkig
Mo, 26.07. 0:00 19.3° C wolkig
So, 25.07. 23:30 19.0° C fast wolkenlos
So, 25.07. 23:00 18.7° C fast wolkenlos
So, 25.07. 22:30 18.5° C leicht bewölkt
So, 25.07. 22:00 18.9° C fast wolkenlos
Ortszeit Relative Feuchte Sichtweite
So, 25.07. 20:00 62% 55 km
So, 25.07. 14:00 54% 65 km
So, 25.07. 8:00 87% 40 km
So, 25.07. 2:00 90% 35 km
Sa, 24.07. 20:00 65% 45 km
Sa, 24.07. 14:00 60% 35 km
Sa, 24.07. 8:00 78% 27 km
Sa, 24.07. 2:00 65% 35 km
Ortszeit Relative Feuchte Sichtweite
Mo, 26.07. 1:00 85% 50 km
Mo, 26.07. 0:50 85% -
Mo, 26.07. 0:40 84% -
Mo, 26.07. 0:30 77% 45 km
Mo, 26.07. 0:20 77% -
Mo, 26.07. 0:10 76% -
Mo, 26.07. 0:00 72% 50 km
So, 25.07. 23:30 74% 60 km
So, 25.07. 23:00 77% 60 km
So, 25.07. 22:30 78% 55 km
So, 25.07. 22:00 76% 8 km
Ortszeit Niederschlagsmenge Niederschlagsart
So, 25.07. 20:00 0.0 l/m2 in 12 Std. -
So, 25.07. 14:00 0.0 l/m2 in 6 Std. -
So, 25.07. 8:00 0.1 l/m2 in 12 Std. -
So, 25.07. 2:00 0.1 l/m2 in 6 Std. Regen
Sa, 24.07. 20:00 0.1 l/m2 in 12 Std. -
Sa, 24.07. 14:00 0.1 l/m2 in 6 Std. Regen
Sa, 24.07. 8:00 0.0 l/m2 in 12 Std. -
Sa, 24.07. 2:00 0.0 l/m2 in 6 Std. -
Ortszeit Niederschlagsmenge Niederschlagsart
Mo, 26.07. 1:00 0.0 l/m2 in 1 Std. -
Mo, 26.07. 0:50 keine Meldung -
Mo, 26.07. 0:40 keine Meldung -
Mo, 26.07. 0:30 0.0 l/m2 in 1 Std. -
Mo, 26.07. 0:20 keine Meldung -
Mo, 26.07. 0:10 keine Meldung -
Mo, 26.07. 0:00 0.0 l/m2 in 1 Std. -
So, 25.07. 23:30 0.0 l/m2 in 1 Std. -
So, 25.07. 23:00 0.0 l/m2 in 1 Std. -
So, 25.07. 22:30 0.0 l/m2 in 1 Std. -
So, 25.07. 22:00 0.0 l/m2 in 1 Std. -
Ortszeit Stärke Spitze Richtung
km/h Bft. km/h Grad Sektor
So, 25.07. 20:00 11 2 22 180° S
So, 25.07. 14:00 6 1 26 220° SW
So, 25.07. 8:00 17 3 26 230° SW
So, 25.07. 2:00 4 1 22 280° W
Sa, 24.07. 20:00 4 1 40 300° NW
Sa, 24.07. 14:00 14 3 22 140° SO
Sa, 24.07. 8:00 14 3 18 160° S
Sa, 24.07. 2:00 9 2 15 140° SO
Ortszeit Stärke Spitze Richtung
km/h Bft. km/h Grad Sektor
Mo, 26.07. 1:00 7 2 14 190° S
Mo, 26.07. 0:50 7 2 - 190° S
Mo, 26.07. 0:40 7 2 - 160° S
Mo, 26.07. 0:30 7 2 14 210° SW
Mo, 26.07. 0:20 7 2 - 210° SW
Mo, 26.07. 0:10 7 2 - 210° SW
Mo, 26.07. 0:00 11 2 18 220° SW
So, 25.07. 23:30 11 2 14 - -
So, 25.07. 23:00 9 2 15 210° SW
So, 25.07. 22:30 7 2 11 200° S
So, 25.07. 22:00 7 2 18 190° S
Ortszeit Untergrenze Bedeckung Gattung
total tief tief mittel hoch
So, 25.07. 20:00 3000 m 3/8 3/8 - - -
So, 25.07. 14:00 1320 m 6/8 3/8 - - -
So, 25.07. 8:00 1380 m 4/8 3/8 - - -
So, 25.07. 2:00 840 m 1/8 1/8 - - -
Sa, 24.07. 20:00 4200 m 8/8 5/8 - - -
Sa, 24.07. 14:00 9000 m 2/8 0/8 - - -
Sa, 24.07. 8:00 4800 m 8/8 2/8 - - -
Sa, 24.07. 2:00 10500 m 1/8 0/8 - - -
Ortszeit Bedeckungsgrad in Achtel und Wolkenuntergrenze
Mo, 26.07. 1:00 1(7800m) 3(8700m)
Mo, 26.07. 0:50 1(7800m) 3(8700m)
Mo, 26.07. 0:40 2(3300m) 3(7800m) 5(8400m)
Mo, 26.07. 0:30 5(3300m) 7(8100m) 7(9000m)
Mo, 26.07. 0:20 5(3300m) 7(8100m) 7(9000m)
Mo, 26.07. 0:10 1(2400m) 7(8100m) 7(9000m)
Mo, 26.07. 0:00 3(2700m) 5(3300m) 6(9000m)
So, 25.07. 23:30 1(9000m)
So, 25.07. 23:00 1(3000m)
So, 25.07. 22:30 5(3300m)
So, 25.07. 22:00 1(3000m)
Ortszeit Luftdruck NN (hPa) Tendenz (hPa in 3 Std.)
So, 25.07. 20:00 1009 - 0,2
So, 25.07. 14:00 1009 0,0
So, 25.07. 8:00 1010 + 0,4
So, 25.07. 2:00 1010 - 0,4
Sa, 24.07. 20:00 1008 - 0,7
Sa, 24.07. 14:00 1009 - 0,9
Sa, 24.07. 8:00 1011 - 0,2
Sa, 24.07. 2:00 1012 - 1,1
Ortszeit Luftdruck NN (hPa) Tendenz (hPa in 3 Std.)
Mo, 26.07. 1:00 1011 + 0,4
Mo, 26.07. 0:50 1011 keine Meldung
Mo, 26.07. 0:40 1011 keine Meldung
Mo, 26.07. 0:30 1011 + 1,2
Mo, 26.07. 0:20 1011 keine Meldung
Mo, 26.07. 0:10 1011 keine Meldung
Mo, 26.07. 0:00 1011 + 1,6
So, 25.07. 23:30 1011 + 1,3
So, 25.07. 23:00 1011 + 1,4
So, 25.07. 22:30 1011 + 1,3
So, 25.07. 22:00 1010 + 1,2
Ortszeit Schneehöhe (cm)
So, 25.07. 20:00 -
So, 25.07. 14:00 -
So, 25.07. 8:00 -
So, 25.07. 2:00 -
Sa, 24.07. 20:00 -
Sa, 24.07. 14:00 -
Sa, 24.07. 8:00 -
Sa, 24.07. 2:00 -
Ortszeit Schneehöhe (cm)
Mo, 26.07. 1:00 -
Mo, 26.07. 0:50 -
Mo, 26.07. 0:40 -
Mo, 26.07. 0:30 -
Mo, 26.07. 0:20 -
Mo, 26.07. 0:10 -
Mo, 26.07. 0:00 -
So, 25.07. 23:30 -
So, 25.07. 23:00 -
So, 25.07. 22:30 -
So, 25.07. 22:00 -
Link zu dieser Seite / Seite empfehlen

Das Wetter in ...